Regional Weather Roundup
Issued by NWS San Angelo, TX

Home | Current Version | Previous Version | Text Only | Print | Product List | Glossary On
Versions: 1 2 3 4 5 6 7 8 9 10 11 12 13 14 15 16 17 18 19 20 21 22 23 24 25 26 27 28 29 30 31 32 33 34 35 36 37 38 39 40 41 42 43 44 45 46 47 48 49 50
000
ASUS44 KSJT 230010
RWRSJT
WEST CENTRAL TEXAS REGIONAL WEATHER ROUNDUP
NATIONAL WEATHER SERVICE SAN ANGELO TX
700 PM CDT WED OCT 22 2014

NOTE: "FAIR" INDICATES FEW OR NO CLOUDS BELOW 12,000 FEET WITH NO
SIGNIFICANT WEATHER AND/OR OBSTRUCTIONS TO VISIBILITY.

TXZ049-054-064>066-071>073-076>078-098-099-113-114-127-128-139-140-
154-155-168>170-230100
...LOCATIONS ACROSS WEST CENTRAL TEXAS...

CITY           SKY/WX    TMP DP  RH WIND       PRES   REMARKS
SAN ANGELO     CLOUDY    70  54  56 SW7       30.10R
ABILENE        CLOUDY    69  59  70 NE3       30.11R
DYESS AFB      CLOUDY    68  58  69 NE1       30.10R
JUNCTION       CLOUDY    72  52  49 S5        30.10R
SWEETWATER     MOCLDY    65  61  86 CALM      30.14F
BROWNWOOD      CLOUDY    73  55  53 CALM      30.08S
COLEMAN        CLOUDY    67  61  80 N5        30.09S
SONORA         DRIZZLE   61  59  94 CALM      30.17R
OZONA          FAIR      59  55  88 CALM      30.14S
BRADY          CLOUDY    73  52  46 SW5       30.10R
$$

TEXAS PANHANDLE/OKLAHOMA PANHANDLE

CITY           SKY/WX    TMP DP  RH WIND       PRES   REMARKS
AMARILLO       CLOUDY    63  61  93 SE13      30.08R FOG
BORGER         PTCLDY    65  59  81 S14G24    30.04R
CANADIAN       CLOUDY    63  60  91 S10G17    30.06S
DALHART        PTCLDY    69  52  54 SE7       30.04R
DUMAS          PTCLDY    67  57  71 SE12G18   30.04R
GUYMON         NOT AVBL
HEREFORD       PTCLDY    67  60  78 SE12      30.07R
PAMPA          CLOUDY    62  59  89 S16       30.07S
PERRYTON       MOCLDY    62  58  87 S18       30.04S
$$

SOUTHERN PANHANDLE/SOUTH PLAINS/ROLLING PLAINS

CITY           SKY/WX    TMP DP  RH WIND       PRES   REMARKS
LUBBOCK        MOCLDY    63  60  90 SE14      30.09S
SNYDER         MOCLDY    63  61  95 E6        30.12R
CHILDRESS      MOCLDY    64  61  90 SE10      30.10S
SEMINOLE       CLOUDY    63  57  83 S9        30.11S
$$

PERMIAN BASIN

CITY           SKY/WX    TMP DP  RH WIND       PRES   REMARKS
MIDLAND        MOCLDY    71  55  56 S16       30.09R
ODESSA         MOCLDY    70  55  59 S13       30.10R
WINK           PTCLDY    67  60  78 SE10      30.06R
$$

FAR WEST/SOUTHWEST MOUNTAINS/TRANS PECOS

CITY           SKY/WX    TMP DP  RH WIND       PRES   REMARKS
ALPINE         PTCLDY    67  58  74 S12       30.17R
DRYDEN           N/A     66  60  81 E12       30.08R
EL PASO        PTCLDY    75  53  46 N6        30.07S
FORT STOCKTON  MOCLDY    69  59  70 SE13G22   30.08R
GUADALUPE PASS PTCLDY    62  56  80 E12       30.18R
MARFA          PTCLDY    66  57  72 S8        30.16R
PECOS          PTCLDY    72  62  70 E12       30.04R
$$

DALLAS/FORT WORTH METROPLEX

CITY           SKY/WX    TMP DP  RH WIND       PRES   REMARKS
DFW AIRPORT    CLOUDY    76  56  49 E7        30.08R
FTW MEACHAM    MOCLDY    76  57  51 SE7       30.08R
DAL-EXECUTIVE  MOCLDY    75  56  51 E6        30.08R
GRAND PRAIRIE  CLEAR     75  59  57 MISG      30.09S
ADDISON        NOT AVBL
MESQUITE       CLEAR     73  55  53 E6        30.09R
LANCASTER      PTCLDY    74  54  49 E5        30.09S
$$

NORTH CENTRAL TEXAS

CITY           SKY/WX    TMP DP  RH WIND       PRES   REMARKS
SHRMAN/DENISON PTCLDY    72  60  66 E5        30.11R
GAINESVILLE    CLOUDY    72  58  61 SE5       30.11S
BRIDGEPORT     MOCLDY    74  60  60 S3        30.11R
DENTON         CLOUDY    74  57  55 E6        30.08R
WAXAHACHIE     MOCLDY    72  58  62 CALM      30.10R
GRANBURY       PTCLDY    77  59  54 E7        30.09R
$$

WESTERN NORTH TEXAS

CITY           SKY/WX    TMP DP  RH WIND       PRES   REMARKS
WICHITA FALLS  CLOUDY    71  58  63 S6        30.09R
VERNON         CLOUDY    64  61  88 CALM      30.11R
BRECKENRIDGE   DRIZZLE   71  65  80 CALM      30.09S
COMANCHE       MOCLDY    73  59  60 E5        30.09R
$$

CENTRAL AND SOUTH CENTRAL TEXAS

CITY           SKY/WX    TMP DP  RH WIND       PRES   REMARKS
AUSTIN/BERGSTM MOCLDY    76  60  57 E9        30.05R
WACO           MOCLDY    74  58  57 E3        30.08R
HILLSBORO      PTCLDY    74  56  53 E5        30.09R
TEMPLE         MOCLDY    73  55  53 E6        30.08R
KILLEEN-GRAY   MOCLDY    75  57  53 E6        30.08R
FORT HOOD      MOCLDY    76  60  57 E3        30.08R
GEORGETOWN     CLEAR     75  59  57 NE3       30.07R
LAGO VISTA     FAIR      75  57  54 E3        30.09R
SAN MARCOS     CLEAR     79  55  44 E8        30.05S
NEW BRAUNFELS  MOCLDY    80  55  42 E8        30.03R
RANDOLPH AFB   MOCLDY    78  54  43 E5        30.05R
SAN ANTONIO    CLOUDY    80  55  42 E6        30.05R
STINSON        MOCLDY    81  54  39 E3        30.02R
PLEASANTON     NOT AVBL
LA GRANGE      PTCLDY    77  62  58 CALM      30.04R
GIDDINGS       PTCLDY    74  60  60 CALM      30.10R
$$

EAST TEXAS

CITY           SKY/WX    TMP DP  RH WIND       PRES   REMARKS
PARIS          CLEAR     66  52  59 E6        30.13R
CLARKSVILLE    NOT AVBL
TYLER          CLEAR     71  54  54 E5        30.10R
LONGVIEW       CLEAR     67  54  63 NE3       30.10R
PALESTINE      CLEAR     70  60  69 CALM      30.10R
NACOGDOCHES    CLEAR     64  54  68 E5        30.09R
$$

TEXAS HILL COUNTRY AND EDWARDS PLATEAU

CITY           SKY/WX    TMP DP  RH WIND       PRES   REMARKS
LLANO          NOT AVBL
HORSESHOE BAY  FAIR      75  56  51 CALM      30.08R
KERRVILLE      CLOUDY    73  57  57 CALM      30.09R
FREDERICKSBRG  DRIZZLE   68  62  81 CALM      30.09S
ROCKSPRINGS    RAIN      64  61  88 CALM      30.14R
HONDO          CLOUDY    75  54  47 NE5       30.07R
UVALDE         CLOUDY    79  53  40 CALM      30.06R
DEL RIO        LGT RAIN  65  62  90 CALM      30.07S FOG
$$

SOUTHEAST TEXAS

CITY           SKY/WX    TMP DP  RH WIND       PRES   REMARKS
COLLEGE STN    CLEAR     75  56  51 NE6       30.06R
CALDWELL       PTCLDY    73  57  56 CALM      30.09R
CROCKETT       CLEAR     70  63  78 CALM      30.11R
BRENHAM        CLEAR     76  58  53 E3        30.06R
HUNTSVILLE     CLEAR     71  58  63 CALM      30.06S
CONROE         CLEAR     67  60  78 CALM      30.06R
HOUSTON BUSH   PTCLDY    73  58  59 NE6       30.05R
HOUSTON HOBBY  PTCLDY    74  60  61 E5        30.04R
PERLAND        CLEAR     75  61  61 SE5       30.06R
WHARTON        CLEAR     73  58  59 E5        30.04R
$$

THE UPPER TEXAS COAST

CITY           SKY/WX    TMP DP  RH WIND       PRES   REMARKS
ORANGE         CLEAR     73  58  60 N3        30.05S
PORT ARTHUR    CLEAR     74  58  57 NE7       30.03R
GALVESTON      CLEAR     74  61  63 E8        30.04R
ANGLETON       CLEAR     71  61  70 E3        30.05R
BAY CITY         N/A     73  62  70 E7        30.04R
$$

TEXAS COASTAL BEND, RIO GRANDE PLAINS DEEP SOUTH TEXAS

CITY           SKY/WX    TMP DP  RH WIND       PRES   REMARKS
VICTORIA       CLEAR     77  64  64 SE9       30.03R
BEEVILLE       FAIR      79  60  51 SE7       30.02R
ROCKPORT       CLEAR     77  65  66 E13       30.02R
PORT ARANSAS   CLEAR     76  64  66 E9        30.02R
PORT LAVACA    CLEAR     75  65  70 E12       30.03R
CORPUS CHRISTI PTCLDY    77  66  68 E13       30.02R
KINGSVILLE NAS PTCLDY    78  67  68 E9        30.02R
COTULLA        MOCLDY    85  57  38 E9        30.00R
LAREDO         MOCLDY    82  63  52 E6        30.02R
BROWNSVILLE    CLEAR     78  68  71 NE7       29.98R
PORT ISABEL    PTCLDY    78  67  68 NE8       29.98R
HEBBRONVILLE   PTCLDY    79  63  57 E15       30.03R
MCALLEN        CLOUDY    79  66  64 E9        29.99R
WESLACO        CLOUDY    79  66  63 E7        29.98S
FALFURRIAS     PTCLDY    77  64  62 E9        30.01R
EDINBURG       CLOUDY    79  67  66 E6        30.00R
$$



USA.gov is the U.S. government's official web portal to all federal, state and local government web resources and services.